Left ArrowRight Arrow

34.74481, -87.66753

Hourly Observations for May 11, 2024

Temp ( °F °C ) Dew Point ( °F °C ) Humidity (%) Winds ( mph kmh ) Pressure ( in mb ) Visibility ( mi km ) Precip ( " mm )
12:53 am 00:53 Clear 58 14.4 51 10.6 78 78 Calm 29.95 1014 10 16 0.00 0.00
1:53 am 01:53 Clear 56 13.3 51 10.6 84 84 Calm 29.94 1014 10 16 0.00 0.00
2:53 am 02:53 Clear 56 13.3 51 10.6 84 84 Calm 29.94 1014 10 16 0.00 0.00
3:53 am 03:53 Clear 53 11.7 51 10.6 93 93 Calm 29.93 1014 10 16 0.00 0.00
4:53 am 04:53 Clear 54 12.2 51 10.6 90 90 Calm 29.95 1014 10 16 0.00 0.00
5:53 am 05:53 Mostly Sunny 53 11.7 50 10 89 89 Calm 29.96 1015 10 16 0.00 0.00
6:53 am 06:53 Sunny 55 12.8 51 10.6 86 86 Calm 29.97 1015 10 16 0.00 0.00
7:53 am 07:53 Sunny 60 15.6 54 12.2 80 80 W 3 6 29.98 1015 10 16 0.00 0.00
8:53 am 08:53 Sunny 66 18.9 53 11.7 63 63 WSW 5 7 29.98 1015 10 16 0.00 0.00
9:53 am 09:53 Sunny 69 20.6 53 11.7 57 57 W 5 7 29.98 1015 10 16 0.00 0.00
10:53 am 10:53 Sunny 72 22.2 53 11.7 51 51 W 8 13 29.98 1015 10 16 0.00 0.00
11:53 am 11:53 Sunny 74 23.3 54 12.2 50 50 WNW 8 13 29.96 1015 10 16 0.00 0.00
12:53 pm 12:53 Mostly Sunny 76 24.4 55 12.8 48 48 W 13 20 29.94 1014 10 16 0.00 0.00
1:53 pm 13:53 Mostly Sunny 77 25 54 12.2 45 45 WNW 7 11 29.92 1013 10 16 0.00 0.00
2:53 pm 14:53 Mostly Sunny 78 25.6 55 12.8 45 45 W 9 15 29.90 1013 10 16 0.00 0.00
3:53 pm 15:53 Mostly Sunny 79 26.1 55 12.8 44 44 WNW 10 17 29.88 1012 10 16 0.00 0.00
4:53 pm 16:53 Mostly Sunny 79 26.1 53 11.7 41 41 WNW 14 22 29.87 1012 10 16 0.00 0.00
5:53 pm 17:53 Mostly Sunny 79 26.1 53 11.7 41 41 W 14 22 29.87 1012 10 16 0.00 0.00
6:53 pm 18:53 Sunny 76 24.4 54 12.2 47 47 WNW 10 17 29.87 1012 10 16 0.00 0.00
7:53 pm 19:53 Clear 74 23.3 54 12.2 50 50 NW 3 6 29.87 1012 10 16 0.00 0.00
8:53 pm 20:53 Mostly Clear 70 21.1 55 12.8 59 59 NNW 5 7 29.88 1012 10 16 0.00 0.00
9:53 pm 21:53 Clear 71 21.7 52 11.1 51 51 N 6 9 29.92 1013 10 16 0.00 0.00
10:53 pm 22:53 Clear 68 20 52 11.1 57 57 VRB 6 9 29.93 1014 10 16 0.00 0.00
11:53 pm 23:53 Clear 67 19.4 50 10 55 55 VRB 5 7 29.93 1014 10 16 0.00 0.00

Powered by Vaisala Xweather